"Pseudo-MPEC" for P21UwcT

Created 2024 May 17 9:22:08 UT using Find_Orb

Click here for an explanation of pseudo-MPECs

 
 Astrometry: 
     P21UwcT* C2024 05 08YAAstrometry$+rn:kk,redacted;r(D9Qm6-;KG0rRRtrtnJ`NkF52
     P21UwcT  C2024 05 08?3=3M/X4[:XtlKdSg6TQb,]\YW*]qX(jEEXs.jaD+?rQE]*fs8=5F52
     P21UwcT  C2024 05 08xTclickqWe!n6here4v'forYv9,^)m(hg!?2^#x1ooFnIqKhLt$`F52
     P21UwcT KC2024 05 10.24813914 06 38.963+16 08 02.90   ~5A6q 22.60GVNEOCPV06
     P21UwcT KC2024 05 10.25291514 06 38.668+16 08 02.40   ~5A6q 22.81GVNEOCPV06
     P21UwcT KC2024 05 10.25768814 06 38.380+16 08 02.08   ~5A6q 22.65GVNEOCPV06
     P21UwcT KC2024 05 10.26245914 06 38.088+16 08 01.64   ~5A6q 22.77GVNEOCPV06
     P21UwcT 3C2024 05 10p_tFxZ+((3JIhD[L!37q\7e_.jM[dQu57I[i^@Kf.viv@$IA7:lsT14
     P21UwcT 3C2024 05 10RWX:H_Ofj%U'Nkq21BR?ru8y?46Yce8u:ZUZKexplanationZ6,cT14
     P21UwcT 3C2024 05 10'WO8T\2LWN?WG-GgeF%`Lsu[Tpj,YqbcrDuxV#=3J$4+lyQq:Wk5T14

Station data:
(F52) Pan-STARRS 2, Haleakala  (N20.707382 W156.255910)  US/Hawaii.
   Observers J. Bulger, T. Dukes, T. Lowe, A. Schultz, M. Willman. Measurers
   K. Chambers, S. Chastel, T. de Boer, L. Denneau, J. Fairlamb, H.
   Flewelling, M. Huber, C.-C. Lin, E. Magnier, Y. Ramanjooloo, R. Wainscoat,
   R. Weryk. 1.8-m Ritchey-Chrétien + CCD.
(T14) Mauna Kea-UH/Tholen NEO Follow-Up (CFHT)  (N19.825252 W155.468876)
   US/Hawaii.  Observer R. Weryk. 3.6-m Canada-France-Hawaii Telescope.
(V06) Catalina Sky Survey-Kuiper  (N32.416871 W110.732550)  US/Arizona.
   Observers T. A. Pruyne, B. M. Africano, E. J. Christensen, G. A. Farneth,
   D. C. Fuls, A. R. Gibbs, A. D. Grauer, H. Gröller, J. A. Johnson, R. A.
   Kowalski, S. M. Larson, G. J. Leonard, D. Rankin, R. L. Seaman, F. C.
   Shelly, K. W. Wierzchoś. 1.55-m reflector + CCD.

Orbital elements:  P21UwcT
   Perihelion 2023 Aug 25.30379 +/- 351 TT =  7:17:27 (JD 2460181.80379)
Epoch 2024 May 10.0 TT = JDT 2460440.5   Earth MOID: 0.2323      AutoNEOCP
M  83.20808771 +/- 110              (J2000 ecliptic)
n   0.32164401 +/- 0.0619           Peri.  310.86899 +/- 54
a   2.10969205 +/- 0.27             Node   131.55332 +/- 15
e   0.4582628 +/- 0.15              Incl.   16.90231 +/- 4.1
P   3.06                   H 19.15  G  0.15   U 11.0  SR
q 1.14289863 +/- 0.244    Q 3.07648547 +/- 0.713
From 10 observations 2024 May 8-10 (46.1 hr); mean residual 0".44
Residuals in arcseconds: 
240508 F52  .13-  .08+    240510 V06  .94+  .00     240510 T14  .03-  .01-    
240508 F52  .15+  .08+    240510 V06  .95+  .12+    240510 T14  .06-  .01-    
240508 F52  .06-  .17-    240510 V06  .91+  .11+    
240510 V06  1.0+  .07+    240510 T14  .05-  .01+    

Ephemerides (geocentric):
Date (UTC) HH   RA             Dec           delta  r     elong  mag " sig PA
---- --------  ------------   ------------  ------ ------ -----  --- --------
2024 05 17 09  14 00 20.180   +15 49 15.76  1.6009 2.4438 137.5 23.0  217  23
2024 05 17 10  14 00 18.198   +15 49 06.49  1.6013 2.4440 137.4 23.0  219  23
2024 05 17 11  14 00 16.218   +15 48 57.20  1.6018 2.4442 137.4 23.0  222  23
2024 05 17 12  14 00 14.242   +15 48 47.87  1.6022 2.4443 137.4 23.0  224  23
2024 05 17 13  14 00 12.268   +15 48 38.52  1.6027 2.4445 137.3 23.0  226  23
2024 05 17 14  14 00 10.297   +15 48 29.13  1.6031 2.4447 137.3 23.0  229  23
2024 05 17 15  14 00 08.328   +15 48 19.72  1.6036 2.4449 137.3 23.0  231  23
2024 05 17 16  14 00 06.363   +15 48 10.28  1.6040 2.4451 137.2 23.0  234  23
2024 05 17 17  14 00 04.400   +15 48 00.81  1.6045 2.4452 137.2 23.0  236  23
2024 05 17 18  14 00 02.440   +15 47 51.31  1.6049 2.4454 137.2 23.0  238  23
2024 05 17 19  14 00 00.483   +15 47 41.78  1.6054 2.4456 137.1 23.0  241  23
2024 05 17 20  13 59 58.528   +15 47 32.22  1.6058 2.4458 137.1 23.0  243  23
2024 05 17 21  13 59 56.577   +15 47 22.64  1.6063 2.4460 137.1 23.0  246  23
2024 05 17 22  13 59 54.628   +15 47 13.02  1.6067 2.4462 137.0 23.0  248  23
2024 05 17 23  13 59 52.682   +15 47 03.38  1.6072 2.4463 137.0 23.0  251  23
2024 05 18 00  13 59 50.739   +15 46 53.71  1.6077 2.4465 137.0 23.0  253  23
2024 05 18 01  13 59 48.799   +15 46 44.01  1.6081 2.4467 137.0 23.0  256  23
2024 05 18 02  13 59 46.861   +15 46 34.28  1.6086 2.4469 136.9 23.0  259  23
2024 05 18 03  13 59 44.927   +15 46 24.52  1.6090 2.4471 136.9 23.0  261  24
2024 05 18 04  13 59 42.995   +15 46 14.73  1.6095 2.4473 136.9 23.0  264  24
2024 05 18 05  13 59 41.066   +15 46 04.91  1.6099 2.4474 136.8 23.0  266  24
2024 05 18 06  13 59 39.140   +15 45 55.07  1.6104 2.4476 136.8 23.0  269  24
2024 05 18 07  13 59 37.216   +15 45 45.20  1.6108 2.4478 136.8 23.0  271  24
2024 05 18 08  13 59 35.296   +15 45 35.30  1.6113 2.4480 136.7 23.0  274  24
2024 05 18 09  13 59 33.378   +15 45 25.37  1.6118 2.4482 136.7 23.0  277  24
2024 05 18 10  13 59 31.463   +15 45 15.41  1.6122 2.4484 136.7 23.0  279  24
2024 05 18 11  13 59 29.551   +15 45 05.42  1.6127 2.4485 136.6 23.0  282  24
2024 05 18 12  13 59 27.642   +15 44 55.41  1.6131 2.4487 136.6 23.0  285  24
2024 05 18 13  13 59 25.735   +15 44 45.36  1.6136 2.4489 136.6 23.0  287  24
2024 05 18 14  13 59 23.832   +15 44 35.29  1.6141 2.4491 136.5 23.0  290  24
2024 05 18 15  13 59 21.931   +15 44 25.19  1.6145 2.4493 136.5 23.0  293  24
2024 05 18 16  13 59 20.033   +15 44 15.06  1.6150 2.4495 136.5 23.0  295  24
2024 05 18 17  13 59 18.138   +15 44 04.91  1.6154 2.4496 136.4 23.0  298  24
2024 05 18 18  13 59 16.246   +15 43 54.72  1.6159 2.4498 136.4 23.0  301  24
2024 05 18 19  13 59 14.356   +15 43 44.51  1.6164 2.4500 136.4 23.0  304  24
2024 05 18 20  13 59 12.470   +15 43 34.27  1.6168 2.4502 136.3 23.0  307  24
2024 05 18 21  13 59 10.586   +15 43 24.00  1.6173 2.4504 136.3 23.0  309  24
2024 05 18 22  13 59 08.705   +15 43 13.71  1.6177 2.4505 136.3 23.0  312  24
2024 05 18 23  13 59 06.827   +15 43 03.38  1.6182 2.4507 136.2 23.0  315  24
2024 05 19 00  13 59 04.952   +15 42 53.03  1.6187 2.4509 136.2 23.0  318  24
2024 05 19 01  13 59 03.079   +15 42 42.65  1.6191 2.4511 136.2 23.0  321  24
2024 05 19 02  13 59 01.210   +15 42 32.24  1.6196 2.4513 136.1 23.0  323  24
2024 05 19 03  13 58 59.343   +15 42 21.80  1.6201 2.4515 136.1 23.0  326  24
2024 05 19 04  13 58 57.479   +15 42 11.34  1.6205 2.4516 136.1 23.0  329  24
2024 05 19 05  13 58 55.618   +15 42 00.85  1.6210 2.4518 136.0 23.0  332  24
2024 05 19 06  13 58 53.760   +15 41 50.33  1.6214 2.4520 136.0 23.0  335  24
2024 05 19 07  13 58 51.904   +15 41 39.78  1.6219 2.4522 136.0 23.0  338  24
2024 05 19 08  13 58 50.052   +15 41 29.20  1.6224 2.4524 135.9 23.0  341  24